Wetterdaten: Donnerstag, 09.12.2010
Datum Zeit Temp. A. Feuchte A. Luftdruck Regen Wind Richtung Richtung Sonnenschein UV Solar Windben
09.12.2010 00:00 -2,0 C 91 % 1010,8 hPa 0,0 mm 3,2 km/h (1 Bft) W-NW 292 0 min 0 UV-I 0 W/m 11,3 km/h (2 Bft)
09.12.2010 00:10 -2,0 C 91 % 1011,1 hPa 0,0 mm 3,2 km/h (1 Bft) W 270 0 min 0 UV-I 0 W/m 9,7 km/h (2 Bft)
09.12.2010 00:20 -2,1 C 90 % 1011,1 hPa 0,0 mm 3,2 km/h (1 Bft) W 270 0 min 0 UV-I 0 W/m 11,3 km/h (2 Bft)
09.12.2010 00:30 -2,1 C 91 % 1011,3 hPa 0,3 mm 3,2 km/h (1 Bft) W 270 0 min 0 UV-I 0 W/m 14,5 km/h (3 Bft)
09.12.2010 00:40 -2,1 C 91 % 1011,4 hPa 0,0 mm 1,6 km/h (1 Bft) W 270 0 min 0 UV-I 0 W/m 11,3 km/h (2 Bft)
09.12.2010 00:50 -2,1 C 91 % 1011,5 hPa 0,0 mm 1,6 km/h (1 Bft) W 270 0 min 0 UV-I 0 W/m 4,8 km/h (1 Bft)
09.12.2010 01:00 -2,1 C 91 % 1012,0 hPa 0,0 mm 3,2 km/h (1 Bft) W 270 0 min 0 UV-I 0 W/m 9,7 km/h (2 Bft)
09.12.2010 01:10 -2,1 C 91 % 1012,3 hPa 0,0 mm 1,6 km/h (1 Bft) W 270 0 min 0 UV-I 0 W/m 8,0 km/h (2 Bft)
09.12.2010 01:20 -2,1 C 91 % 1012,4 hPa 0,0 mm 1,6 km/h (1 Bft) W 270 0 min 0 UV-I 0 W/m 8,0 km/h (2 Bft)
09.12.2010 01:30 -2,1 C 91 % 1012,4 hPa 0,0 mm 3,2 km/h (1 Bft) W 270 0 min 0 UV-I 0 W/m 9,7 km/h (2 Bft)
09.12.2010 01:40 -2,0 C 91 % 1012,4 hPa 0,0 mm 3,2 km/h (1 Bft) W 270 0 min 0 UV-I 0 W/m 14,5 km/h (3 Bft)
09.12.2010 01:50 -1,9 C 91 % 1012,5 hPa 0,0 mm 3,2 km/h (1 Bft) W 270 0 min 0 UV-I 0 W/m 8,0 km/h (2 Bft)
09.12.2010 02:00 -1,9 C 91 % 1012,5 hPa 0,0 mm 3,2 km/h (1 Bft) W 270 0 min 0 UV-I 0 W/m 9,7 km/h (2 Bft)
09.12.2010 02:10 -1,9 C 91 % 1012,7 hPa 0,0 mm 3,2 km/h (1 Bft) W 270 0 min 0 UV-I 0 W/m 14,5 km/h (3 Bft)
09.12.2010 02:20 -1,8 C 91 % 1012,6 hPa 0,0 mm 4,8 km/h (1 Bft) W-SW 247 0 min 0 UV-I 0 W/m 11,3 km/h (2 Bft)
09.12.2010 02:30 -1,8 C 91 % 1012,6 hPa 0,0 mm 3,2 km/h (1 Bft) W-SW 247 0 min 0 UV-I 0 W/m 9,7 km/h (2 Bft)
09.12.2010 02:40 -1,8 C 91 % 1012,7 hPa 0,0 mm 6,4 km/h (2 Bft) W-SW 247 0 min 0 UV-I 0 W/m 16,1 km/h (3 Bft)
09.12.2010 02:50 -1,8 C 91 % 1012,7 hPa 0,0 mm 3,2 km/h (1 Bft) W-SW 247 0 min 0 UV-I 0 W/m 9,7 km/h (2 Bft)
09.12.2010 03:00 -1,7 C 91 % 1012,8 hPa 0,0 mm 3,2 km/h (1 Bft) W-SW 247 0 min 0 UV-I 0 W/m 8,0 km/h (2 Bft)
09.12.2010 03:10 -1,7 C 91 % 1012,8 hPa 0,0 mm 3,2 km/h (1 Bft) W-SW 247 0 min 0 UV-I 0 W/m 11,3 km/h (2 Bft)
09.12.2010 03:20 -1,7 C 91 % 1013,1 hPa 0,0 mm 4,8 km/h (1 Bft) W-SW 247 0 min 0 UV-I 0 W/m 14,5 km/h (3 Bft)
09.12.2010 03:30 -1,6 C 91 % 1013,1 hPa 0,0 mm 4,8 km/h (1 Bft) W-SW 247 0 min 0 UV-I 0 W/m 16,1 km/h (3 Bft)
09.12.2010 03:40 -1,6 C 91 % 1013,0 hPa 0,0 mm 4,8 km/h (1 Bft) W-SW 247 0 min 0 UV-I 0 W/m 12,9 km/h (3 Bft)
09.12.2010 03:50 -1,5 C 92 % 1013,0 hPa 0,0 mm 4,8 km/h (1 Bft) W 270 0 min 0 UV-I 0 W/m 16,1 km/h (3 Bft)
09.12.2010 04:00 -1,4 C 91 % 1012,9 hPa 0,0 mm 4,8 km/h (1 Bft) W-SW 247 0 min 0 UV-I 0 W/m 14,5 km/h (3 Bft)
09.12.2010 04:10 -1,4 C 92 % 1013,1 hPa 0,0 mm 4,8 km/h (1 Bft) W-SW 247 0 min 0 UV-I 0 W/m 14,5 km/h (3 Bft)
09.12.2010 04:20 -1,3 C 92 % 1013,1 hPa 0,0 mm 6,4 km/h (2 Bft) W 270 0 min 0 UV-I 0 W/m 17,7 km/h (3 Bft)
09.12.2010 04:30 -1,2 C 92 % 1013,2 hPa 0,0 mm 4,8 km/h (1 Bft) W-SW 247 0 min 0 UV-I 0 W/m 17,7 km/h (3 Bft)
09.12.2010 04:40 -1,1 C 92 % 1013,3 hPa 0,0 mm 4,8 km/h (1 Bft) W 270 0 min 0 UV-I 0 W/m 11,3 km/h (2 Bft)
09.12.2010 04:50 -1,1 C 92 % 1013,4 hPa 0,0 mm 4,8 km/h (1 Bft) W-SW 247 0 min 0 UV-I 0 W/m 12,9 km/h (3 Bft)
09.12.2010 05:00 -1,0 C 92 % 1013,5 hPa 0,3 mm 4,8 km/h (1 Bft) W-SW 247 0 min 0 UV-I 0 W/m 17,7 km/h (3 Bft)
09.12.2010 05:10 -0,9 C 92 % 1013,8 hPa 0,0 mm 6,4 km/h (2 Bft) W-SW 247 0 min 0 UV-I 0 W/m 17,7 km/h (3 Bft)
09.12.2010 05:20 -0,8 C 92 % 1013,7 hPa 0,0 mm 4,8 km/h (1 Bft) W-SW 247 0 min 0 UV-I 0 W/m 17,7 km/h (3 Bft)
09.12.2010 05:30 -0,7 C 92 % 1013,8 hPa 0,0 mm 6,4 km/h (2 Bft) W-SW 247 0 min 0 UV-I 0 W/m 22,5 km/h (4 Bft)
09.12.2010 05:40 -0,7 C 92 % 1014,2 hPa 0,0 mm 4,8 km/h (1 Bft) W 270 0 min 0 UV-I 0 W/m 22,5 km/h (4 Bft)
09.12.2010 05:50 -0,6 C 92 % 1014,3 hPa 0,0 mm 4,8 km/h (1 Bft) W 270 0 min 0 UV-I 0 W/m 14,5 km/h (3 Bft)
09.12.2010 06:00 -0,5 C 92 % 1014,3 hPa 0,0 mm 4,8 km/h (1 Bft) W-SW 247 0 min 0 UV-I 0 W/m 16,1 km/h (3 Bft)
09.12.2010 06:10 -0,4 C 92 % 1014,3 hPa 0,0 mm 6,4 km/h (2 Bft) W 270 0 min 0 UV-I 0 W/m 19,3 km/h (3 Bft)
09.12.2010 06:20 -0,4 C 92 % 1014,4 hPa 0,0 mm 4,8 km/h (1 Bft) W 270 0 min 0 UV-I 0 W/m 14,5 km/h (3 Bft)
09.12.2010 06:30 -0,4 C 92 % 1014,4 hPa 0,0 mm 4,8 km/h (1 Bft) W-SW 247 0 min 0 UV-I 0 W/m 14,5 km/h (3 Bft)
09.12.2010 06:40 -0,3 C 92 % 1014,5 hPa 0,0 mm 4,8 km/h (1 Bft) W-SW 247 0 min 0 UV-I 0 W/m 16,1 km/h (3 Bft)
09.12.2010 06:50 -0,3 C 92 % 1014,7 hPa 0,0 mm 6,4 km/h (2 Bft) W-SW 247 0 min 0 UV-I 0 W/m 16,1 km/h (3 Bft)
09.12.2010 07:00 -0,3 C 92 % 1014,8 hPa 0,3 mm 6,4 km/h (2 Bft) W 270 0 min 0 UV-I 0 W/m 17,7 km/h (3 Bft)
09.12.2010 07:10 -0,2 C 92 % 1015,1 hPa 0,0 mm 6,4 km/h (2 Bft) W-SW 247 0 min 0 UV-I 0 W/m 19,3 km/h (3 Bft)
09.12.2010 07:20 -0,2 C 92 % 1015,1 hPa 0,0 mm 4,8 km/h (1 Bft) W-SW 247 0 min 0 UV-I 0 W/m 16,1 km/h (3 Bft)
09.12.2010 07:30 -0,2 C 92 % 1015,2 hPa 0,0 mm 4,8 km/h (1 Bft) W-SW 247 0 min 0 UV-I 0 W/m 14,5 km/h (3 Bft)
09.12.2010 07:40 -0,2 C 92 % 1015,1 hPa 0,0 mm 4,8 km/h (1 Bft) W 270 0 min 0 UV-I 0 W/m 20,9 km/h (4 Bft)
09.12.2010 07:50 -0,1 C 92 % 1015,0 hPa 0,0 mm 6,4 km/h (2 Bft) W-SW 247 0 min 0 UV-I 0 W/m 19,3 km/h (3 Bft)
09.12.2010 08:00 -0,1 C 92 % 1015,7 hPa 0,0 mm 6,0 km/h (2 Bft) W-NW 287 0 min 0 UV-I 0 W/m 16,1 km/h (3 Bft)
09.12.2010 08:10 -0,1 C 92 % 1015,7 hPa 0,0 mm 3,2 km/h (1 Bft) W 270 0 min 0 UV-I 0 W/m 11,3 km/h (2 Bft)
09.12.2010 08:20 -0,1 C 92 % 1016,0 hPa 0,0 mm 4,8 km/h (1 Bft) W 270 0 min 0 UV-I 0 W/m 16,1 km/h (3 Bft)
09.12.2010 08:30 -0,1 C 92 % 1016,0 hPa 0,0 mm 6,4 km/h (2 Bft) W 270 0 min 0 UV-I 0 W/m 16,1 km/h (3 Bft)
09.12.2010 08:40 0,0 C 92 % 1015,9 hPa 0,0 mm 6,4 km/h (2 Bft) W-SW 247 0 min 0 UV-I 0 W/m 16,1 km/h (3 Bft)
09.12.2010 08:50 0,0 C 92 % 1015,9 hPa 0,0 mm 9,7 km/h (2 Bft) W-SW 247 0 min 0 UV-I 0 W/m 22,5 km/h (4 Bft)
09.12.2010 09:00 0,0 C 92 % 1016,2 hPa 0,0 mm 6,4 km/h (2 Bft) W 270 0 min 0 UV-I 0 W/m 22,5 km/h (4 Bft)
09.12.2010 09:10 -0,1 C 92 % 1016,2 hPa 0,0 mm 6,4 km/h (2 Bft) W 270 0 min 0 UV-I 5 W/m 22,5 km/h (4 Bft)
09.12.2010 09:20 -0,1 C 92 % 1016,4 hPa 0,0 mm 4,8 km/h (1 Bft) W 270 0 min 0 UV-I 5 W/m 17,7 km/h (3 Bft)
09.12.2010 09:30 0,0 C 92 % 1016,4 hPa 0,0 mm 6,4 km/h (2 Bft) W 270 0 min 0 UV-I 7 W/m 17,7 km/h (3 Bft)
09.12.2010 09:40 0,0 C 92 % 1016,5 hPa 0,0 mm 6,4 km/h (2 Bft) W 270 0 min 0 UV-I 7 W/m 17,7 km/h (3 Bft)
09.12.2010 09:50 0,1 C 92 % 1016,6 hPa 0,0 mm 4,8 km/h (1 Bft) W 270 0 min 0 UV-I 18 W/m 14,5 km/h (3 Bft)
09.12.2010 10:00 0,2 C 92 % 1016,8 hPa 0,0 mm 6,4 km/h (2 Bft) W 270 0 min 0 UV-I 25 W/m 22,5 km/h (4 Bft)
09.12.2010 10:10 0,2 C 92 % 1016,8 hPa 0,0 mm 6,4 km/h (2 Bft) W 270 0 min 0 UV-I 26 W/m 19,3 km/h (3 Bft)
09.12.2010 10:20 0,2 C 92 % 1016,9 hPa 0,0 mm 6,4 km/h (2 Bft) W 270 0 min 0 UV-I 25 W/m 17,7 km/h (3 Bft)
09.12.2010 10:30 0,3 C 92 % 1017,0 hPa 0,0 mm 6,4 km/h (2 Bft) W 270 0 min 0 UV-I 32 W/m 19,3 km/h (3 Bft)
09.12.2010 10:40 0,4 C 92 % 1016,9 hPa 0,0 mm 8,0 km/h (2 Bft) W 270 0 min 0 UV-I 33 W/m 17,7 km/h (3 Bft)
09.12.2010 10:50 0,6 C 92 % 1017,1 hPa 0,0 mm 6,4 km/h (2 Bft) W 270 0 min 0 UV-I 46 W/m 24,1 km/h (4 Bft)
09.12.2010 11:00 0,7 C 92 % 1017,1 hPa 0,3 mm 8,0 km/h (2 Bft) W 270 0 min 0 UV-I 44 W/m 22,5 km/h (4 Bft)
09.12.2010 11:10 0,7 C 92 % 1017,2 hPa 0,3 mm 8,0 km/h (2 Bft) W 270 0 min 0 UV-I 28 W/m 22,5 km/h (4 Bft)
09.12.2010 11:20 0,7 C 92 % 1017,1 hPa 0,0 mm 4,8 km/h (1 Bft) W 270 0 min 0 UV-I 26 W/m 19,3 km/h (3 Bft)
09.12.2010 11:30 0,7 C 92 % 1017,1 hPa 0,0 mm 9,7 km/h (2 Bft) W 270 0 min 0 UV-I 26 W/m 30,6 km/h (5 Bft)
09.12.2010 11:40 0,7 C 91 % 1017,2 hPa 0,0 mm 8,0 km/h (2 Bft) W 270 0 min 0 UV-I 18 W/m 19,3 km/h (3 Bft)
09.12.2010 11:50 0,8 C 91 % 1017,2 hPa 0,3 mm 6,4 km/h (2 Bft) W 270 0 min 0 UV-I 46 W/m 19,3 km/h (3 Bft)
09.12.2010 12:00 0,9 C 91 % 1017,1 hPa 0,0 mm 4,8 km/h (1 Bft) W 270 0 min 0 UV-I 46 W/m 16,1 km/h (3 Bft)
09.12.2010 12:10 1,1 C 91 % 1017,1 hPa 0,0 mm 6,4 km/h (2 Bft) W 270 0 min 0 UV-I 51 W/m 17,7 km/h (3 Bft)
09.12.2010 12:20 1,2 C 91 % 1017,1 hPa 0,3 mm 6,4 km/h (2 Bft) W 270 0 min 0 UV-I 65 W/m 17,7 km/h (3 Bft)
09.12.2010 12:30 1,3 C 90 % 1017,0 hPa 0,0 mm 8,0 km/h (2 Bft) W 270 0 min 0 UV-I 42 W/m 22,5 km/h (4 Bft)
09.12.2010 12:40 1,3 C 90 % 1017,2 hPa 0,0 mm 8,0 km/h (2 Bft) W 270 0 min 0 UV-I 74 W/m 22,5 km/h (4 Bft)
09.12.2010 12:50 1,3 C 90 % 1017,1 hPa 0,0 mm 8,0 km/h (2 Bft) W 270 0 min 0 UV-I 46 W/m 24,1 km/h (4 Bft)
09.12.2010 13:00 1,3 C 89 % 1017,1 hPa 0,3 mm 12,9 km/h (3 Bft) W 270 0 min 0 UV-I 32 W/m 29,0 km/h (5 Bft)
09.12.2010 13:10 1,3 C 89 % 1017,2 hPa 0,0 mm 8,0 km/h (2 Bft) W 270 0 min 0 UV-I 37 W/m 24,1 km/h (4 Bft)
09.12.2010 13:20 1,3 C 89 % 1017,1 hPa 0,3 mm 11,3 km/h (2 Bft) W 270 0 min 0 UV-I 69 W/m 29,0 km/h (5 Bft)
09.12.2010 13:30 1,3 C 88 % 1017,2 hPa 0,0 mm 11,3 km/h (2 Bft) W 270 0 min 0 UV-I 25 W/m 29,0 km/h (5 Bft)
09.12.2010 13:40 1,3 C 88 % 1017,2 hPa 0,0 mm 9,7 km/h (2 Bft) W 270 0 min 0 UV-I 40 W/m 22,5 km/h (4 Bft)
09.12.2010 13:50 1,4 C 88 % 1017,1 hPa 0,3 mm 9,7 km/h (2 Bft) W 270 0 min 0 UV-I 58 W/m 29,0 km/h (5 Bft)
09.12.2010 14:00 1,4 C 87 % 1017,2 hPa 0,0 mm 8,0 km/h (2 Bft) W 270 0 min 0 UV-I 56 W/m 20,9 km/h (4 Bft)
09.12.2010 14:10 1,4 C 87 % 1017,4 hPa 0,0 mm 9,7 km/h (2 Bft) W 270 0 min 0 UV-I 51 W/m 37,0 km/h (5 Bft)
09.12.2010 14:20 1,4 C 86 % 1017,3 hPa 0,3 mm 8,0 km/h (2 Bft) W 270 0 min 0 UV-I 56 W/m 29,0 km/h (5 Bft)
09.12.2010 14:30 1,4 C 86 % 1017,4 hPa 0,0 mm 8,0 km/h (2 Bft) W 270 10 min 0 UV-I 100 W/m 20,9 km/h (4 Bft)
09.12.2010 14:40 1,4 C 86 % 1017,3 hPa 0,0 mm 8,0 km/h (2 Bft) W 270 10 min 0 UV-I 118 W/m 22,5 km/h (4 Bft)
09.12.2010 14:50 1,5 C 85 % 1017,3 hPa 0,0 mm 9,7 km/h (2 Bft) W 270 0 min 0 UV-I 70 W/m 25,7 km/h (4 Bft)
09.12.2010 15:00 1,5 C 85 % 1017,5 hPa 0,0 mm 9,7 km/h (2 Bft) W 270 10 min 0 UV-I 104 W/m 24,1 km/h (4 Bft)
09.12.2010 15:10 1,6 C 85 % 1017,5 hPa 0,0 mm 9,7 km/h (2 Bft) W 270 10 min 0 UV-I 76 W/m 22,5 km/h (4 Bft)
09.12.2010 15:20 1,6 C 84 % 1017,7 hPa 0,0 mm 9,7 km/h (2 Bft) W 270 10 min 0 UV-I 58 W/m 25,7 km/h (4 Bft)
09.12.2010 15:30 1,6 C 84 % 1017,9 hPa 0,0 mm 8,0 km/h (2 Bft) W-NW 292 0 min 0 UV-I 26 W/m 24,1 km/h (4 Bft)
09.12.2010 15:40 1,6 C 84 % 1017,9 hPa 0,0 mm 6,4 km/h (2 Bft) W 270 0 min 0 UV-I 23 W/m 19,3 km/h (3 Bft)
09.12.2010 15:50 1,5 C 84 % 1018,2 hPa 0,0 mm 6,4 km/h (2 Bft) W 270 10 min 0 UV-I 40 W/m 20,9 km/h (4 Bft)
09.12.2010 16:00 1,4 C 84 % 1018,1 hPa 0,0 mm 8,9 km/h (2 Bft) W 270 0 min 0 UV-I 4 W/m 17,7 km/h (3 Bft)
09.12.2010 16:10 1,4 C 84 % 1018,4 hPa 0,0 mm 9,7 km/h (2 Bft) W 270 0 min 0 UV-I 0 W/m 24,1 km/h (4 Bft)
09.12.2010 16:20 1,4 C 85 % 1018,4 hPa 0,0 mm 6,4 km/h (2 Bft) W-NW 292 0 min 0 UV-I 0 W/m 19,3 km/h (3 Bft)
09.12.2010 16:30 1,2 C 85 % 1018,6 hPa 0,0 mm 8,0 km/h (2 Bft) W 270 0 min 0 UV-I 0 W/m 22,5 km/h (4 Bft)
09.12.2010 16:40 1,2 C 85 % 1018,6 hPa 0,0 mm 6,4 km/h (2 Bft) W-NW 292 0 min 0 UV-I 0 W/m 25,7 km/h (4 Bft)
09.12.2010 16:50 1,1 C 85 % 1018,8 hPa 0,0 mm 9,7 km/h (2 Bft) W-NW 292 0 min 0 UV-I 0 W/m 29,0 km/h (5 Bft)
09.12.2010 17:00 1,1 C 86 % 1018,8 hPa 0,0 mm 6,4 km/h (2 Bft) W 270 0 min 0 UV-I 0 W/m 17,7 km/h (3 Bft)
09.12.2010 17:10 1,1 C 86 % 1018,9 hPa 0,0 mm 4,8 km/h (1 Bft) W 270 0 min 0 UV-I 0 W/m 14,5 km/h (3 Bft)
09.12.2010 17:20 1,0 C 86 % 1019,0 hPa 0,0 mm 4,8 km/h (1 Bft) W 270 0 min 0 UV-I 0 W/m 19,3 km/h (3 Bft)
09.12.2010 17:30 0,9 C 86 % 1019,2 hPa 0,3 mm 8,0 km/h (2 Bft) W 270 0 min 0 UV-I 0 W/m 17,7 km/h (3 Bft)
09.12.2010 17:40 0,9 C 86 % 1019,3 hPa 0,0 mm 6,4 km/h (2 Bft) W 270 0 min 0 UV-I 0 W/m 19,3 km/h (3 Bft)
09.12.2010 17:50 0,9 C 86 % 1019,6 hPa 0,0 mm 8,0 km/h (2 Bft) W 270 0 min 0 UV-I 0 W/m 25,7 km/h (4 Bft)
09.12.2010 18:00 1,0 C 86 % 1019,6 hPa 0,0 mm 8,0 km/h (2 Bft) W 270 0 min 0 UV-I 0 W/m 22,5 km/h (4 Bft)
09.12.2010 18:10 1,1 C 86 % 1019,6 hPa 0,0 mm 6,4 km/h (2 Bft) W 270 0 min 0 UV-I 0 W/m 20,9 km/h (4 Bft)
09.12.2010 18:20 1,2 C 86 % 1019,7 hPa 0,0 mm 6,4 km/h (2 Bft) W 270 0 min 0 UV-I 0 W/m 17,7 km/h (3 Bft)
09.12.2010 18:30 1,2 C 86 % 1019,8 hPa 0,0 mm 6,4 km/h (2 Bft) W 270 0 min 0 UV-I 0 W/m 16,1 km/h (3 Bft)
09.12.2010 18:40 1,2 C 85 % 1020,0 hPa 0,0 mm 6,4 km/h (2 Bft) W 270 0 min 0 UV-I 0 W/m 22,5 km/h (4 Bft)
09.12.2010 18:50 1,2 C 85 % 1020,0 hPa 0,0 mm 8,0 km/h (2 Bft) W 270 0 min 0 UV-I 0 W/m 22,5 km/h (4 Bft)
09.12.2010 19:00 1,2 C 85 % 1020,2 hPa 0,0 mm 8,0 km/h (2 Bft) W 270 0 min 0 UV-I 0 W/m 19,3 km/h (3 Bft)
09.12.2010 19:10 1,1 C 85 % 1020,4 hPa 0,0 mm 8,0 km/h (2 Bft) W 270 0 min 0 UV-I 0 W/m 22,5 km/h (4 Bft)
09.12.2010 19:20 1,1 C 85 % 1020,5 hPa 0,0 mm 8,0 km/h (2 Bft) W 270 0 min 0 UV-I 0 W/m 20,9 km/h (4 Bft)
09.12.2010 19:30 1,1 C 85 % 1020,6 hPa 0,0 mm 6,4 km/h (2 Bft) W 270 0 min 0 UV-I 0 W/m 22,5 km/h (4 Bft)
09.12.2010 19:40 1,1 C 86 % 1020,8 hPa 0,0 mm 8,0 km/h (2 Bft) W 270 0 min 0 UV-I 0 W/m 20,9 km/h (4 Bft)
09.12.2010 19:50 1,1 C 86 % 1020,7 hPa 0,0 mm 4,8 km/h (1 Bft) W 270 0 min 0 UV-I 0 W/m 19,3 km/h (3 Bft)
09.12.2010 20:00 1,2 C 87 % 1020,8 hPa 0,0 mm 6,4 km/h (2 Bft) W 270 0 min 0 UV-I 0 W/m 16,1 km/h (3 Bft)
09.12.2010 20:10 1,2 C 87 % 1020,9 hPa 0,0 mm 8,0 km/h (2 Bft) W 270 0 min 0 UV-I 0 W/m 17,7 km/h (3 Bft)
09.12.2010 20:20 1,3 C 87 % 1020,7 hPa 0,0 mm 8,0 km/h (2 Bft) W 270 0 min 0 UV-I 0 W/m 20,9 km/h (4 Bft)
09.12.2010 20:30 1,3 C 88 % 1020,8 hPa 0,0 mm 6,4 km/h (2 Bft) W 270 0 min 0 UV-I 0 W/m 16,1 km/h (3 Bft)
09.12.2010 20:40 1,3 C 88 % 1020,8 hPa 0,0 mm 6,4 km/h (2 Bft) W 270 0 min 0 UV-I 0 W/m 19,3 km/h (3 Bft)
09.12.2010 20:50 1,3 C 88 % 1020,7 hPa 0,0 mm 4,8 km/h (1 Bft) W-SW 247 0 min 0 UV-I 0 W/m 14,5 km/h (3 Bft)
09.12.2010 21:00 1,3 C 88 % 1020,8 hPa 0,0 mm 4,8 km/h (1 Bft) W 270 0 min 0 UV-I 0 W/m 17,7 km/h (3 Bft)
09.12.2010 21:10 1,3 C 88 % 1020,9 hPa 0,0 mm 3,2 km/h (1 Bft) W 270 0 min 0 UV-I 0 W/m 9,7 km/h (2 Bft)
09.12.2010 21:20 1,3 C 88 % 1021,1 hPa 0,0 mm 4,8 km/h (1 Bft) W 270 0 min 0 UV-I 0 W/m 16,1 km/h (3 Bft)
09.12.2010 21:30 1,3 C 89 % 1021,1 hPa 0,0 mm 4,8 km/h (1 Bft) W 270 0 min 0 UV-I 0 W/m 16,1 km/h (3 Bft)
09.12.2010 21:40 1,2 C 89 % 1021,0 hPa 0,0 mm 6,4 km/h (2 Bft) W-SW 247 0 min 0 UV-I 0 W/m 20,9 km/h (4 Bft)
09.12.2010 21:50 1,2 C 89 % 1021,1 hPa 0,0 mm 6,4 km/h (2 Bft) W 270 0 min 0 UV-I 0 W/m 17,7 km/h (3 Bft)
09.12.2010 22:00 1,2 C 89 % 1021,1 hPa 0,0 mm 6,4 km/h (2 Bft) W 270 0 min 0 UV-I 0 W/m 17,7 km/h (3 Bft)
09.12.2010 22:10 1,2 C 89 % 1021,1 hPa 0,0 mm 4,8 km/h (1 Bft) W 270 0 min 0 UV-I 0 W/m 19,3 km/h (3 Bft)
09.12.2010 22:20 1,1 C 90 % 1021,0 hPa 0,3 mm 6,4 km/h (2 Bft) W 270 0 min 0 UV-I 0 W/m 16,1 km/h (3 Bft)
09.12.2010 22:30 1,1 C 89 % 1021,0 hPa 0,0 mm 3,2 km/h (1 Bft) SW 225 0 min 0 UV-I 0 W/m 9,7 km/h (2 Bft)
09.12.2010 22:40 1,0 C 90 % 1021,1 hPa 0,0 mm 4,8 km/h (1 Bft) W 270 0 min 0 UV-I 0 W/m 17,7 km/h (3 Bft)
09.12.2010 22:50 0,9 C 90 % 1021,0 hPa 0,3 mm 6,4 km/h (2 Bft) W 270 0 min 0 UV-I 0 W/m 16,1 km/h (3 Bft)
09.12.2010 23:00 0,9 C 90 % 1021,1 hPa 0,0 mm 3,2 km/h (1 Bft) W-SW 247 0 min 0 UV-I 0 W/m 11,3 km/h (2 Bft)
09.12.2010 23:10 0,8 C 90 % 1021,2 hPa 0,0 mm 3,2 km/h (1 Bft) W-SW 247 0 min 0 UV-I 0 W/m 11,3 km/h (2 Bft)
09.12.2010 23:20 0,8 C 90 % 1021,3 hPa 0,0 mm 3,2 km/h (1 Bft) W-SW 247 0 min 0 UV-I 0 W/m 9,7 km/h (2 Bft)
09.12.2010 23:30 0,8 C 91 % 1021,5 hPa 0,0 mm 3,2 km/h (1 Bft) W 270 0 min 0 UV-I 0 W/m 9,7 km/h (2 Bft)
09.12.2010 23:40 0,8 C 91 % 1021,4 hPa 0,0 mm 4,8 km/h (1 Bft) W 270 0 min 0 UV-I 0 W/m 17,7 km/h (3 Bft)
09.12.2010 23:50 0,8 C 91 % 1021,5 hPa 0,0 mm 3,2 km/h (1 Bft) W 270 0 min 0 UV-I 0 W/m 9,7 km/h (2 Bft)
_ Min-Zeit 00:10 15:20 00:00 - 00:40 - - - - - 00:50
Minimum _ -2,1 C 84 % 1010,8 hPa - 1,6 km/h (1 Bft) - - - - - 4,8 km/h (1 Bft)
_ Max-Zeit 15:20 03:50 23:30 00:30 13:00 - - 14:30 00:00 14:40 14:10
Maximum _ 1,7 C 92 % 1021,5 hPa 0,3 mm 12,9 km/h
W (3 Bft)
- - 10 min 0 UV-I 118 W/m 37,0 km/h
W (5 Bft)
Durchschnitt _ 0,2 C 89 % 1016,8 hPa #3,6 mm 6,0 km/h (2 Bft) W - #1:00 h 0 UV-I 42 W/m 18,0 km/h (3 Bft)